30-07-2023, 00:00:04,    285,    1.4,   12.8,   0.00,   0.00, 1006.4,   83.9, -999.0
30-07-2023, 00:00:14,    266,    2.0,   12.9,   0.00,   0.00, 1006.5,   84.0, -999.0
30-07-2023, 00:00:24,    254,    2.5,   12.8,   0.00,   0.00, 1006.5,   83.9, -999.0
30-07-2023, 00:00:34,    252,    1.5,   12.8,   0.00,   0.00, 1006.5,   84.0, -999.0
30-07-2023, 00:00:44,    251,    0.2,   12.8,   0.00,   0.00, 1006.4,   83.9, -999.0
30-07-2023, 00:00:54,    212,    0.2,   12.8,   0.00,   0.00, 1006.4,   84.6, -999.0
30-07-2023, 00:01:04,    217,    0.7,   12.8,   0.00,   0.00, 1006.5,   85.1, -999.0
30-07-2023, 00:01:14,    220,    0.5,   12.9,   0.00,   0.00, 1006.5,   85.1, -999.0
30-07-2023, 00:01:24,    199,    1.1,   12.9,   0.00,   0.00, 1006.4,   84.9, -999.0
30-07-2023, 00:01:34,    201,    0.8,   12.9,   0.00,   0.00, 1006.5,   84.8, -999.0
30-07-2023, 00:01:44,    205,    0.1,   12.8,   0.00,   0.00, 1006.4,   84.7, -999.0
30-07-2023, 00:01:54,    217,    0.6,   12.8,   0.00,   0.00, 1006.4,   84.9, -999.0
30-07-2023, 00:02:04,    210,    1.1,   12.8,   0.00,   0.00, 1006.5,   85.0, -999.0
30-07-2023, 00:02:14,    217,    3.1,   12.8,   0.00,   0.00, 1006.5,   85.1, -999.0
30-07-2023, 00:02:24,    229,    2.7,   12.8,   0.00,   0.00, 1006.5,   85.4, -999.0
30-07-2023, 00:02:34,    292,    3.0,   12.8,   0.00,   0.00, 1006.5,   85.6, -999.0
30-07-2023, 00:02:44,    245,    1.5,   12.8,   0.00,   0.00, 1006.5,   85.6, -999.0
30-07-2023, 00:02:54,    239,    0.7,   12.8,   0.00,   0.00, 1006.5,   85.9, -999.0
30-07-2023, 00:03:03,    200,    0.1,   12.8,   0.00,   0.00, 1006.4,   85.7, -999.0
30-07-2023, 00:03:14,    200,    1.8,   12.8,   0.00,   0.00, 1006.5,   85.9, -999.0
30-07-2023, 00:03:24,    243,    0.5,   12.8,   0.00,   0.00, 1006.5,   85.7, -999.0
30-07-2023, 00:03:33,    205,    0.7,   12.8,   0.00,   0.00, 1006.5,   85.9, -999.0
30-07-2023, 00:03:44,    225,    1.4,   12.8,   0.00,   0.00, 1006.5,   86.2, -999.0
30-07-2023, 00:03:54,    226,    0.6,   12.7,   0.00,   0.00, 1006.5,   86.3, -999.0
30-07-2023, 00:04:04,    218,    2.2,   12.8,   0.00,   0.00, 1006.5,   86.2, -999.0
30-07-2023, 00:04:13,    209,    2.3,   12.8,   0.00,   0.00, 1006.5,   86.3, -999.0
30-07-2023, 00:04:24,    222,    1.7,   12.6,   0.00,   0.00, 1006.5,   86.2, -999.0
30-07-2023, 00:04:34,    203,    1.2,   12.8,   0.00,   0.00, 1006.5,   86.5, -999.0
30-07-2023, 00:04:43,    236,    2.1,   12.8,   0.00,   0.00, 1006.4,   86.1, -999.0
30-07-2023, 00:04:53,    233,    3.2,   12.8,   0.00,   0.00, 1006.5,   86.2, -999.0
30-07-2023, 00:05:04,    235,    0.9,   12.6,   0.00,   0.00, 1006.5,   86.1, -999.0
30-07-2023, 00:05:13,    305,    0.1,   12.7,   0.00,   0.00, 1006.4,   86.0, -999.0
30-07-2023, 00:05:23,    248,    1.1,   12.7,   0.00,   0.00, 1006.5,   86.5, -999.0
30-07-2023, 00:05:33,    234,    0.2,   12.7,   0.00,   0.00, 1006.4,   86.3, -999.0
30-07-2023, 00:05:44,    234,    0.0,   12.7,   0.00,   0.00, 1006.3,   86.1, -999.0
30-07-2023, 00:05:53,    234,    0.0,   12.7,   0.00,   0.00, 1006.4,   86.3, -999.0
30-07-2023, 00:06:03,    250,    0.4,   12.8,   0.00,   0.00, 1006.4,   86.3, -999.0
30-07-2023, 00:06:13,    242,    2.1,   12.8,   0.00,   0.00, 1006.5,   86.5, -999.0
30-07-2023, 00:06:23,    256,    2.4,   12.8,   0.00,   0.00, 1006.5,   86.2, -999.0
30-07-2023, 00:06:33,    257,    0.8,   12.8,   0.00,   0.00, 1006.4,   85.9, -999.0
30-07-2023, 00:06:43,    257,    0.0,   12.7,   0.00,   0.00, 1006.4,   85.8, -999.0
30-07-2023, 00:06:53,    256,    0.0,   12.7,   0.00,   0.00, 1006.4,   85.9, -999.0
30-07-2023, 00:07:03,    257,    0.0,   12.7,   0.00,   0.00, 1006.4,   85.9, -999.0
30-07-2023, 00:07:13,    256,    0.0,   12.7,   0.00,   0.00, 1006.4,   86.2, -999.0
30-07-2023, 00:07:23,    247,    0.0,   12.7,   0.00,   0.00, 1006.4,   86.7, -999.0
30-07-2023, 00:07:33,    239,    0.3,   12.7,   0.00,   0.00, 1006.4,   86.6, -999.0
30-07-2023, 00:07:43,    221,    0.9,   12.7,   0.00,   0.00, 1006.5,   86.6, -999.0
30-07-2023, 00:07:53,    221,    0.6,   12.8,   0.00,   0.00, 1006.5,   86.7, -999.0
30-07-2023, 00:08:03,    220,    0.0,   12.7,   0.00,   0.00, 1006.4,   86.2, -999.0
30-07-2023, 00:08:13,    220,    0.0,   12.6,   0.00,   0.00, 1006.4,   86.2, -999.0
30-07-2023, 00:08:23,    220,    0.0,   12.6,   0.00,   0.00, 1006.4,   86.5, -999.0
30-07-2023, 00:08:33,    207,    0.3,   12.7,   0.00,   0.00, 1006.4,   86.9, -999.0
30-07-2023, 00:08:43,    205,    0.5,   12.8,   0.00,   0.00, 1006.4,   87.2, -999.0
30-07-2023, 00:08:53,    228,    0.3,   12.7,   0.00,   0.00, 1006.4,   87.2, -999.0
30-07-2023, 00:09:03,    200,    0.4,   12.7,   0.00,   0.00, 1006.4,   87.3, -999.0
30-07-2023, 00:09:13,    246,    1.3,   12.8,   0.00,   0.00, 1006.4,   87.3, -999.0
30-07-2023, 00:09:23,    246,    0.3,   12.7,   0.00,   0.00, 1006.4,   87.3, -999.0
30-07-2023, 00:09:33,    247,    0.0,   12.6,   0.00,   0.00, 1006.3,   87.4, -999.0
30-07-2023, 00:09:43,    246,    0.0,   12.7,   0.00,   0.00, 1006.4,   87.7, -999.0
30-07-2023, 00:09:53,    246,    0.0,   12.7,   0.00,   0.00, 1006.4,   87.7, -999.0
30-07-2023, 00:10:03,    247,    0.0,   12.7,   0.00,   0.00, 1006.3,   87.7, -999.0
30-07-2023, 00:10:13,    246,    0.0,   12.7,   0.00,   0.00, 1006.3,   87.6, -999.0
30-07-2023, 00:10:23,    246,    0.0,   12.6,   0.00,   0.00, 1006.3,   87.6, -999.0
30-07-2023, 00:10:33,    277,    1.1,   12.7,   0.00,   0.00, 1006.4,   87.9, -999.0
30-07-2023, 00:10:43,    280,    1.3,   12.8,   0.00,   0.00, 1006.5,   87.8, -999.0
30-07-2023, 00:10:53,    212,    0.9,   12.8,   0.00,   0.00, 1006.5,   87.8, -999.0
30-07-2023, 00:11:03,    214,    0.0,   12.7,   0.00,   0.00, 1006.4,   87.6, -999.0
30-07-2023, 00:11:13,    198,    1.4,   12.8,   0.00,   0.00, 1006.4,   88.0, -999.0
30-07-2023, 00:11:22,    258,    1.3,   12.8,   0.00,   0.00, 1006.5,   88.3, -999.0
30-07-2023, 00:11:33,    219,    1.6,   12.8,   0.00,   0.00, 1006.5,   88.4, -999.0
30-07-2023, 00:11:43,    240,    1.9,   12.7,   0.00,   0.00, 1006.5,   88.5, -999.0
30-07-2023, 00:11:52,    270,    0.3,   12.8,   0.00,   0.00, 1006.5,   88.9, -999.0
30-07-2023, 00:12:03,    252,    0.0,   12.7,   0.00,   0.00, 1006.4,   88.9, -999.0
30-07-2023, 00:12:13,    250,    0.1,   12.6,   0.00,   0.00, 1006.4,   88.9, -999.0
30-07-2023, 00:12:23,    257,    1.2,   12.7,   0.00,   0.00, 1006.5,   89.6, -999.0
30-07-2023, 00:12:32,    257,    0.4,   12.6,   0.00,   0.00, 1006.4,   89.5, -999.0
30-07-2023, 00:12:43,    251,    0.4,   12.7,   0.00,   0.00, 1006.4,   89.4, -999.0
30-07-2023, 00:12:53,    263,    2.8,   12.7,   0.00,   0.00, 1006.5,   90.0, -999.0
30-07-2023, 00:13:02,    223,    1.4,   12.8,   0.00,   0.00, 1006.5,   90.5, -999.0
30-07-2023, 00:13:12,    239,    2.2,   12.7,   0.00,   0.00, 1006.4,   90.7, -999.0
30-07-2023, 00:13:23,    212,    2.1,   12.7,   0.00,   0.00, 1006.5,   90.7, -999.0
30-07-2023, 00:13:32,    212,    0.5,   12.7,   0.00,   0.00, 1006.4,   91.0, -999.0
30-07-2023, 00:13:42,    213,    0.0,   12.6,   0.00,   0.00, 1006.4,   91.0, -999.0
30-07-2023, 00:13:52,    236,    1.8,   12.7,   0.00,   0.00, 1006.4,   91.6, -999.0
30-07-2023, 00:14:02,    245,    1.2,   12.7,   0.00,   0.00, 1006.5,   91.8, -999.0
30-07-2023, 00:14:12,    250,    0.8,   12.7,   0.00,   0.00, 1006.5,   91.7, -999.0
30-07-2023, 00:14:22,    207,    1.1,   12.7,   0.00,   0.00, 1006.5,   91.9, -999.0
30-07-2023, 00:14:32,    229,    1.7,   12.7,   0.00,   0.00, 1006.5,   92.2, -999.0
30-07-2023, 00:14:42,    224,    1.5,   12.7,   0.00,   0.00, 1006.5,   92.2, -999.0
30-07-2023, 00:14:52,    224,    1.6,   12.7,   0.00,   0.00, 1006.5,   93.0, -999.0
30-07-2023, 00:15:02,    228,    1.5,   12.6,   0.00,   0.00, 1006.5,   93.3, -999.0
30-07-2023, 00:15:12,    235,    0.3,   12.5,   0.00,   0.00, 1006.4,   93.5, -999.0
30-07-2023, 00:15:22,    235,    0.9,   12.6,   0.00,   0.00, 1006.4,   93.8, -999.0
30-07-2023, 00:15:32,    291,    1.2,   12.6,   0.00,   0.00, 1006.4,   94.3, -999.0
30-07-2023, 00:15:42,    237,    0.2,   12.5,   0.00,   0.00, 1006.4,   94.4, -999.0
30-07-2023, 00:15:52,    237,    0.0,   12.6,   0.00,   0.00, 1006.4,   94.8, -999.0
30-07-2023, 00:16:02,    237,    0.0,   12.5,   0.00,   0.00, 1006.3,   95.2, -999.0
30-07-2023, 00:16:12,    237,    0.0,   12.6,   0.00,   0.00, 1006.3,   95.2, -999.0
30-07-2023, 00:16:22,    243,    0.1,   12.6,   0.00,   0.00, 1006.4,   95.3, -999.0
30-07-2023, 00:16:32,    243,    0.5,   12.7,   0.00,   0.00, 1006.4,   95.8, -999.0
30-07-2023, 00:16:42,    266,    0.4,   12.7,   0.00,   0.00, 1006.4,   95.7, -999.0
30-07-2023, 00:16:52,    239,    1.0,   12.6,   0.00,   0.00, 1006.4,   95.5, -999.0
30-07-2023, 00:17:02,    231,    2.1,   12.6,   0.00,   0.00, 1006.4,   95.5, -999.0
30-07-2023, 00:17:12,    231,    0.5,   12.6,   0.00,   0.00, 1006.4,   95.6, -999.0
30-07-2023, 00:17:22,    230,    0.0,   12.5,   0.00,   0.00, 1006.3,   96.0, -999.0
30-07-2023, 00:17:32,    230,    0.0,   12.5,   0.00,   0.00, 1006.3,   96.3, -999.0
30-07-2023, 00:17:42,    227,    0.4,   12.6,   0.00,   0.00, 1006.4,   96.7, -999.0
30-07-2023, 00:17:52,    226,    0.7,   12.7,   0.00,   0.00, 1006.4,   97.4, -999.0
30-07-2023, 00:18:02,    223,    0.0,   12.5,   0.00,   0.00, 1006.3,   96.9, -999.0
30-07-2023, 00:18:12,    228,    0.2,   12.6,   0.00,   0.00, 1006.4,   97.4, -999.0
30-07-2023, 00:18:22,    224,    0.0,   12.5,   0.00,   0.00, 1006.3,   97.5, -999.0
30-07-2023, 00:18:32,    304,    0.5,   12.6,   0.00,   0.00, 1006.4,   97.9, -999.0
30-07-2023, 00:18:42,    301,    0.3,   12.5,   0.00,   0.00, 1006.3,   97.8, -999.0
30-07-2023, 00:18:52,    186,    0.0,   12.5,   0.00,   0.00, 1006.3,   97.7, -999.0
30-07-2023, 00:19:02,    214,    1.1,   12.6,   0.00,   0.00, 1006.4,   98.7, -999.0
30-07-2023, 00:19:12,    195,    1.5,   12.6,   0.00,   0.00, 1006.4,   99.0, -999.0
30-07-2023, 00:19:22,    197,    0.5,   12.6,   0.00,   0.00, 1006.3,   98.8, -999.0
30-07-2023, 00:19:31,    206,    0.5,   12.6,   0.00,   0.00, 1006.3,   99.0, -999.0
30-07-2023, 00:19:42,    207,    0.2,   12.6,   0.00,   0.00, 1006.3,   98.9, -999.0
30-07-2023, 00:19:52,    206,    0.0,   12.5,   0.00,   0.00, 1006.3,   98.6, -999.0
30-07-2023, 00:20:01,    207,    0.0,   12.6,   0.00,   0.00, 1006.3,   98.6, -999.0
30-07-2023, 00:20:11,    207,    0.0,   12.5,   0.00,   0.00, 1006.2,   98.6, -999.0
30-07-2023, 00:20:22,    207,    0.0,   12.5,   0.00,   0.00, 1006.3,   98.6, -999.0
30-07-2023, 00:20:32,    206,    0.0,   12.6,   0.00,   0.00, 1006.3,   98.6, -999.0
30-07-2023, 00:20:41,    210,    0.0,   12.5,   0.00,   0.00, 1006.3,   98.6, -999.0
30-07-2023, 00:20:51,    232,    0.8,   12.6,   0.00,   0.00, 1006.4,   98.9, -999.0
30-07-2023, 00:21:02,    234,    2.5,   12.6,   0.00,   0.00, 1006.4,   99.1, -999.0
30-07-2023, 00:21:11,    218,    1.4,   12.6,   0.00,   0.00, 1006.4,   99.1, -999.0
30-07-2023, 00:21:21,    229,    0.8,   12.7,   0.00,   0.00, 1006.4,   99.0, -999.0
30-07-2023, 00:21:32,    247,    0.7,   12.6,   0.00,   0.00, 1006.4,   99.0, -999.0
30-07-2023, 00:21:41,    244,    0.0,   12.5,   0.00,   0.00, 1006.3,   98.7, -999.0
30-07-2023, 00:21:51,    249,    0.0,   12.5,   0.00,   0.00, 1006.3,   98.6, -999.0
30-07-2023, 00:22:01,    251,    0.9,   12.6,   0.00,   0.00, 1006.4,   98.9, -999.0
30-07-2023, 00:22:12,    239,    0.7,   12.6,   0.00,   0.00, 1006.4,   98.9, -999.0
30-07-2023, 00:22:21,    239,    0.0,   12.5,   0.00,   0.00, 1006.3,   98.6, -999.0
30-07-2023, 00:22:31,    239,    0.0,   12.5,   0.00,   0.00, 1006.2,   98.6, -999.0
30-07-2023, 00:22:41,    238,    0.0,   12.5,   0.00,   0.00, 1006.2,   98.6, -999.0
30-07-2023, 00:22:51,    213,    0.3,   12.5,   0.00,   0.00, 1006.3,   98.8, -999.0
30-07-2023, 00:23:01,    256,    1.6,   12.7,   0.00,   0.00, 1006.4,   99.0, -999.0
30-07-2023, 00:23:11,    257,    0.9,   12.6,   0.00,   0.00, 1006.3,   99.0, -999.0
30-07-2023, 00:23:21,    231,    1.0,   12.6,   0.00,   0.00, 1006.4,   99.0, -999.0
30-07-2023, 00:23:31,    206,    0.6,   12.5,   0.00,   0.00, 1006.4,   98.9, -999.0
30-07-2023, 00:23:41,    201,    1.2,   12.7,   0.00,   0.00, 1006.4,   98.9, -999.0
30-07-2023, 00:23:51,    205,    0.3,   12.6,   0.00,   0.00, 1006.3,   98.8, -999.0
30-07-2023, 00:24:01,    205,    0.0,   12.5,   0.00,   0.00, 1006.3,   98.7, -999.0
30-07-2023, 00:24:11,    206,    0.1,   12.6,   0.00,   0.00, 1006.3,   98.8, -999.0
30-07-2023, 00:24:21,    205,    0.0,   12.5,   0.00,   0.00, 1006.3,   98.6, -999.0
30-07-2023, 00:24:31,    199,    1.5,   12.6,   0.00,   0.00, 1006.4,   99.0, -999.0
30-07-2023, 00:24:41,    154,    0.5,   12.6,   0.00,   0.00, 1006.3,   98.9, -999.0
30-07-2023, 00:24:51,    233,    0.4,   12.6,   0.00,   0.00, 1006.3,   98.9, -999.0
30-07-2023, 00:25:01,    254,    2.0,   12.6,   0.00,   0.00, 1006.4,   99.0, -999.0
30-07-2023, 00:25:11,    232,    0.9,   12.7,   0.00,   0.00, 1006.3,   99.0, -999.0
30-07-2023, 00:25:21,    252,    1.7,   12.6,   0.00,   0.00, 1006.3,   99.0, -999.0
30-07-2023, 00:25:31,    251,    1.6,   12.6,   0.00,   0.00, 1006.3,   99.0, -999.0
30-07-2023, 00:25:41,    243,    0.5,   12.6,   0.00,   0.00, 1006.3,   98.9, -999.0
30-07-2023, 00:25:51,    243,    0.5,   12.6,   0.00,   0.00, 1006.3,   98.9, -999.0
30-07-2023, 00:26:01,    242,    0.1,   12.6,   0.00,   0.00, 1006.2,   98.8, -999.0
30-07-2023, 00:26:11,    242,    0.0,   12.6,   0.00,   0.00, 1006.2,   98.6, -999.0
30-07-2023, 00:26:21,    241,    0.0,   12.6,   0.00,   0.00, 1006.2,   98.6, -999.0
30-07-2023, 00:26:31,    240,    0.0,   12.6,   0.00,   0.00, 1006.2,   98.7, -999.0
30-07-2023, 00:26:41,    239,    0.0,   12.6,   0.00,   0.00, 1006.2,   98.5, -999.0
30-07-2023, 00:26:51,    239,    0.0,   12.5,   0.00,   0.00, 1006.2,   98.6, -999.0
30-07-2023, 00:27:01,    238,    0.0,   12.5,   0.00,   0.00, 1006.2,   98.6, -999.0
30-07-2023, 00:27:10,    241,    0.3,   12.6,   0.00,   0.00, 1006.2,   98.9, -999.0
30-07-2023, 00:27:21,    240,    0.1,   12.6,   0.00,   0.00, 1006.2,   98.8, -999.0
30-07-2023, 00:27:31,    240,    0.0,   12.5,   0.00,   0.00, 1006.2,   98.6, -999.0
30-07-2023, 00:27:41,    236,    0.4,   12.6,   0.00,   0.00, 1006.2,   98.8, -999.0
30-07-2023, 00:27:50,    248,    1.0,   12.7,   0.00,   0.00, 1006.3,   99.0, -999.0
30-07-2023, 00:28:01,    248,    0.6,   12.7,   0.00,   0.00, 1006.3,   99.0, -999.0
30-07-2023, 00:28:11,    249,    0.0,   12.5,   0.00,   0.00, 1006.2,   98.8, -999.0
30-07-2023, 00:28:20,    249,    0.0,   12.6,   0.00,   0.00, 1006.2,   98.6, -999.0
30-07-2023, 00:28:31,    249,    0.0,   12.6,   0.00,   0.00, 1006.2,   98.8, -999.0
30-07-2023, 00:28:41,    200,    0.5,   12.7,   0.00,   0.00, 1006.3,   99.0, -999.0
30-07-2023, 00:28:50,    204,    0.0,   12.6,   0.00,   0.00, 1006.2,   98.7, -999.0
30-07-2023, 00:29:00,    216,    4.4,   12.6,   0.00,   0.00, 1006.3,   99.1, -999.0
30-07-2023, 00:29:11,    217,    2.7,   12.7,   0.00,   0.00, 1006.3,   99.1, -999.0
30-07-2023, 00:29:20,    231,    0.9,   12.7,   0.00,   0.00, 1006.3,   98.9, -999.0
30-07-2023, 00:29:30,    238,    1.9,   12.7,   0.00,   0.00, 1006.3,   99.0, -999.0
30-07-2023, 00:29:40,    216,    3.2,   12.7,   0.00,   0.00, 1006.4,   99.0, -999.0
30-07-2023, 00:29:51,    205,    2.9,   12.6,   0.00,   0.00, 1006.3,   99.0, -999.0
30-07-2023, 00:30:00,    220,    1.9,   12.7,   0.00,   0.00, 1006.3,   99.0, -999.0
30-07-2023, 00:30:10,    224,    1.4,   12.6,   0.00,   0.00, 1006.3,   99.0, -999.0
30-07-2023, 00:30:20,    175,    1.1,   12.6,   0.00,   0.00, 1006.3,   99.0, -999.0
30-07-2023, 00:30:30,    183,    0.0,   12.5,   0.00,   0.00, 1006.3,   98.6, -999.0
30-07-2023, 00:30:40,    183,    0.0,   12.6,   0.00,   0.00, 1006.3,   98.6, -999.0
30-07-2023, 00:30:50,    236,    0.3,   12.6,   0.00,   0.00, 1006.3,   98.9, -999.0
30-07-2023, 00:31:00,    227,    0.0,   12.6,   0.00,   0.00, 1006.3,   98.6, -999.0
30-07-2023, 00:31:10,    227,    0.0,   12.5,   0.00,   0.00, 1006.2,   98.7, -999.0
30-07-2023, 00:31:20,    227,    0.0,   12.5,   0.00,   0.00, 1006.3,   98.6, -999.0
30-07-2023, 00:31:30,    227,    0.0,   12.5,   0.00,   0.00, 1006.3,   98.6, -999.0
30-07-2023, 00:31:40,    220,    0.0,   12.4,   0.00,   0.00, 1006.2,   98.6, -999.0
30-07-2023, 00:31:50,    219,    0.0,   12.5,   0.00,   0.00, 1006.3,   98.7, -999.0
30-07-2023, 00:32:00,    219,    0.0,   12.5,   0.00,   0.00, 1006.2,   98.6, -999.0
30-07-2023, 00:32:10,    219,    0.0,   12.5,   0.00,   0.00, 1006.2,   98.6, -999.0
30-07-2023, 00:32:20,    219,    0.0,   12.5,   0.00,   0.00, 1006.2,   98.6, -999.0
30-07-2023, 00:32:30,    219,    0.0,   12.5,   0.00,   0.00, 1006.2,   98.6, -999.0
30-07-2023, 00:32:40,    219,    0.0,   12.5,   0.00,   0.00, 1006.2,   98.6, -999.0
30-07-2023, 00:32:50,    219,    0.0,   12.5,   0.00,   0.00, 1006.2,   98.6, -999.0
30-07-2023, 00:33:00,    219,    0.0,   12.5,   0.00,   0.00, 1006.2,   98.6, -999.0
30-07-2023, 00:33:10,    256,    0.0,   12.5,   0.00,   0.00, 1006.3,   98.6, -999.0
30-07-2023, 00:33:20,    269,    2.8,   12.6,   0.00,   0.00, 1006.3,   99.1, -999.0
30-07-2023, 00:33:30,    251,    1.5,   12.7,   0.00,   0.00, 1006.3,   98.9, -999.0
30-07-2023, 00:33:40,    256,    2.3,   12.6,   0.00,   0.00, 1006.3,   99.0, -999.0
30-07-2023, 00:33:50,    245,    2.4,   12.6,   0.00,   0.00, 1006.3,   99.0, -999.0
30-07-2023, 00:34:00,    245,    1.6,   12.6,   0.00,   0.00, 1006.3,   99.0, -999.0
30-07-2023, 00:34:10,    244,    0.5,   12.6,   0.00,   0.00, 1006.2,   98.9, -999.0
30-07-2023, 00:34:20,    244,    0.0,   12.5,   0.00,   0.00, 1006.2,   98.6, -999.0
30-07-2023, 00:34:30,    248,    0.1,   12.5,   0.00,   0.00, 1006.3,   98.7, -999.0
30-07-2023, 00:34:40,    250,    0.8,   12.7,   0.00,   0.00, 1006.3,   99.0, -999.0
30-07-2023, 00:34:50,    250,    0.0,   12.6,   0.00,   0.00, 1006.2,   98.7, -999.0
30-07-2023, 00:35:00,    250,    0.0,   12.5,   0.00,   0.00, 1006.2,   98.8, -999.0
30-07-2023, 00:35:10,    250,    0.0,   12.5,   0.00,   0.00, 1006.2,   98.6, -999.0
30-07-2023, 00:35:20,    225,    0.3,   12.6,   0.00,   0.00, 1006.3,   98.8, -999.0
30-07-2023, 00:35:29,    224,    0.0,   12.6,   0.00,   0.00, 1006.2,   98.7, -999.0
30-07-2023, 00:35:40,    225,    0.0,   12.7,   0.00,   0.00, 1006.2,   98.6, -999.0
30-07-2023, 00:35:50,    225,    0.0,   12.5,   0.00,   0.00, 1006.2,   98.6, -999.0
30-07-2023, 00:35:59,    222,    0.2,   12.6,   0.00,   0.00, 1006.3,   98.8, -999.0
30-07-2023, 00:36:09,    217,    0.3,   12.6,   0.00,   0.00, 1006.3,   98.9, -999.0
30-07-2023, 00:36:20,    225,    0.9,   12.7,   0.00,   0.00, 1006.3,   99.0, -999.0
30-07-2023, 00:36:30,    213,    0.3,   12.6,   0.00,   0.00, 1006.2,   98.9, -999.0
30-07-2023, 00:36:39,    205,    0.2,   12.6,   0.00,   0.00, 1006.3,   98.8, -999.0
30-07-2023, 00:36:49,    231,    1.4,   12.7,   0.00,   0.00, 1006.3,   99.0, -999.0
30-07-2023, 00:37:00,    237,    0.7,   12.6,   0.00,   0.00, 1006.3,   99.0, -999.0
30-07-2023, 00:37:09,    239,    0.3,   12.6,   0.00,   0.00, 1006.2,   98.7, -999.0
30-07-2023, 00:37:19,    224,    1.0,   12.7,   0.00,   0.00, 1006.3,   98.9, -999.0
30-07-2023, 00:37:30,    224,    0.3,   12.6,   0.00,   0.00, 1006.2,   98.9, -999.0
30-07-2023, 00:37:39,    224,    0.0,   12.6,   0.00,   0.00, 1006.2,   98.9, -999.0
30-07-2023, 00:37:49,    224,    0.0,   12.5,   0.00,   0.00, 1006.2,   98.6, -999.0
30-07-2023, 00:37:59,    224,    0.0,   12.6,   0.00,   0.00, 1006.2,   98.6, -999.0
30-07-2023, 00:38:10,    224,    0.0,   12.6,   0.00,   0.00, 1006.2,   98.6, -999.0
30-07-2023, 00:38:19,    224,    0.0,   12.5,   0.00,   0.00, 1006.2,   98.6, -999.0
30-07-2023, 00:38:29,    217,    0.3,   12.6,   0.00,   0.00, 1006.2,   98.9, -999.0
30-07-2023, 00:38:39,    228,    2.6,   12.7,   0.00,   0.00, 1006.3,   99.0, -999.0
30-07-2023, 00:38:49,    203,    1.7,   12.7,   0.00,   0.00, 1006.3,   99.0, -999.0
30-07-2023, 00:38:59,    204,    0.0,   12.5,   0.00,   0.00, 1006.2,   98.6, -999.0
30-07-2023, 00:39:09,    245,    0.4,   12.5,   0.00,   0.00, 1006.2,   98.9, -999.0
30-07-2023, 00:39:19,    244,    0.2,   12.6,   0.00,   0.00, 1006.2,   98.8, -999.0
30-07-2023, 00:39:29,    243,    0.0,   12.4,   0.00,   0.00, 1006.2,   98.6, -999.0
30-07-2023, 00:39:39,    206,    0.5,   12.5,   0.00,   0.00, 1006.2,   98.7, -999.0
30-07-2023, 00:39:49,    219,    1.1,   12.7,   0.00,   0.00, 1006.2,   99.0, -999.0
30-07-2023, 00:39:59,    219,    0.2,   12.6,   0.00,   0.00, 1006.2,   98.8, -999.0
30-07-2023, 00:40:09,    195,    1.9,   12.6,   0.00,   0.00, 1006.3,   99.0, -999.0
30-07-2023, 00:40:19,    199,    2.5,   12.6,   0.00,   0.00, 1006.3,   99.0, -999.0
30-07-2023, 00:40:29,    200,    1.6,   12.6,   0.00,   0.00, 1006.3,   99.0, -999.0
30-07-2023, 00:40:39,    198,    0.7,   12.6,   0.00,   0.00, 1006.3,   99.0, -999.0
30-07-2023, 00:40:49,    219,    1.5,   12.6,   0.00,   0.00, 1006.3,   99.0, -999.0
30-07-2023, 00:40:59,    213,    1.7,   12.6,   0.00,   0.00, 1006.3,   99.0, -999.0
30-07-2023, 00:41:09,    210,    0.4,   12.7,   0.00,   0.00, 1006.2,   98.9, -999.0
30-07-2023, 00:41:19,    201,    0.5,   12.6,   0.00,   0.00, 1006.2,   98.9, -999.0
30-07-2023, 00:41:29,    204,    1.4,   12.7,   0.00,   0.00, 1006.3,   99.0, -999.0
30-07-2023, 00:41:39,    244,    2.4,   12.7,   0.00,   0.00, 1006.3,   98.9, -999.0
30-07-2023, 00:41:49,    244,    2.7,   12.6,   0.00,   0.00, 1006.2,   98.9, -999.0
30-07-2023, 00:41:59,    195,    2.8,   12.6,   0.00,   0.00, 1006.2,   99.0, -999.0
30-07-2023, 00:42:09,    205,    1.0,   12.7,   0.00,   0.00, 1006.3,   98.9, -999.0
30-07-2023, 00:42:19,    202,    0.9,   12.7,   0.00,   0.00, 1006.3,   99.0, -999.0
30-07-2023, 00:42:29,    202,    0.8,   12.7,   0.00,   0.00, 1006.2,   98.9, -999.0
30-07-2023, 00:42:39,    202,    0.3,   12.7,   0.00,   0.00, 1006.2,   98.9, -999.0
30-07-2023, 00:42:49,    202,    0.3,   12.7,   0.00,   0.00, 1006.2,   98.9, -999.0
30-07-2023, 00:42:59,    201,    0.5,   12.7,   0.00,   0.00, 1006.2,   99.0, -999.0
30-07-2023, 00:43:08,    220,    1.9,   12.7,   0.00,   0.00, 1006.2,   99.0, -999.0
30-07-2023, 00:43:19,    219,    1.8,   12.7,   0.00,   0.00, 1006.3,   99.0, -999.0
30-07-2023, 00:43:29,    214,    2.5,   12.7,   0.00,   0.00, 1006.2,   99.0, -999.0
30-07-2023, 00:43:38,    216,    1.7,   12.7,   0.00,   0.00, 1006.3,   99.0, -999.0
30-07-2023, 00:43:49,    216,    0.7,   12.7,   0.00,   0.00, 1006.2,   99.0, -999.0
30-07-2023, 00:43:59,    244,    0.6,   12.7,   0.00,   0.00, 1006.2,   99.0, -999.0
30-07-2023, 00:44:09,    222,    0.2,   12.6,   0.00,   0.00, 1006.2,   98.8, -999.0
30-07-2023, 00:44:18,    220,    0.1,   12.7,   0.00,   0.00, 1006.2,   98.8, -999.0
30-07-2023, 00:44:29,    219,    0.2,   12.6,   0.00,   0.00, 1006.2,   98.8, -999.0
30-07-2023, 00:44:39,    185,    0.6,   12.7,   0.00,   0.00, 1006.2,   98.8, -999.0
30-07-2023, 00:44:48,    211,    1.6,   12.6,   0.00,   0.00, 1006.3,   98.9, -999.0
30-07-2023, 00:44:58,    199,    2.6,   12.7,   0.00,   0.00, 1006.3,   99.0, -999.0
30-07-2023, 00:45:09,    211,    1.5,   12.7,   0.00,   0.00, 1006.3,   99.0, -999.0
30-07-2023, 00:45:18,    213,    1.0,   12.7,   0.00,   0.00, 1006.3,   99.0, -999.0
30-07-2023, 00:45:28,    247,    0.5,   12.7,   0.00,   0.00, 1006.3,   99.0, -999.0
30-07-2023, 00:45:38,    236,    1.6,   12.7,   0.00,   0.00, 1006.3,   99.0, -999.0
30-07-2023, 00:45:49,    191,    0.6,   12.7,   0.00,   0.00, 1006.3,   99.0, -999.0
30-07-2023, 00:45:58,    223,    1.8,   12.7,   0.00,   0.00, 1006.3,   98.9, -999.0
30-07-2023, 00:46:08,    223,    2.1,   12.8,   0.00,   0.00, 1006.3,   99.1, -999.0
30-07-2023, 00:46:18,    228,    2.4,   12.7,   0.00,   0.00, 1006.3,   99.0, -999.0
30-07-2023, 00:46:28,    220,    0.5,   12.8,   0.00,   0.00, 1006.3,   99.0, -999.0
30-07-2023, 00:46:38,    211,    0.4,   12.7,   0.00,   0.00, 1006.2,   98.8, -999.0
30-07-2023, 00:46:48,    210,    1.6,   12.8,   0.00,   0.00, 1006.3,   99.0, -999.0